Location: St. Andrews
(45.0670°N, 67.0330°W)
Time: 16:51:50
(UTC-04:00)

Amateur Radio Satellites - All Passes

Search period start: 01 March 2015 16:21
Search period end: 02 March 2015 16:21
Location: St. Andrews, 45.0670°N, 67.0330°W

Satellite Date Start Highest point End Downlink Frequencies (MHz)
Time Altitude Azimuth
Cubesat XI-IV 01 Mar 16:41:25 16:45:33 24° 62° (ENE) 16:49:48 437.490
ISS 01 Mar 16:48:36 16:51:17 24° 222° (SW) 16:53:56 145.825
CUTE-I 01 Mar 16:50:28 16:54:53 28° 64° (ENE) 16:59:25 437.470
MOZHAYETS 4 01 Mar 16:53:26 16:57:49 41° 97° (E) 17:02:13
YUBILEINY 01 Mar 16:55:02 17:03:47 89° 98° (E) 17:12:39 435.215
M-CUBED/EXP-1 PRIME 01 Mar 17:01:41 17:05:49 60° 106° (ESE) 17:10:15 437.505
AUBIESAT-1 01 Mar 17:04:51 17:08:59 58° 106° (ESE) 17:13:26 437.475
BEESAT 3 01 Mar 17:20:43 17:23:59 24° 115° (ESE) 17:27:22 437.485
AO-7 01 Mar 17:28:37 17:34:42 21° 272° (W) 17:40:25 29.400- 29.500
AIST 2 01 Mar 17:36:25 17:38:01 12° 110° (ESE) 17:39:50 435.215
BEESAT 2 01 Mar 17:44:08 17:47:53 35° 117° (ESE) 17:51:44 435.950
VERMONT LUNAR 01 Mar 17:48:28 17:49:38 11° 152° (SSE) 17:50:54 437.305
O/OREOS (USA 219) 01 Mar 18:01:12 18:03:28 14° 45° (NE) 18:05:53 437.305
AIST 1 01 Mar 18:12:09 18:16:17 38° 75° (ENE) 18:20:25
Cubesat XI-IV 01 Mar 18:20:05 18:25:20 54° 260° (W) 18:30:38 437.490
HO-68 01 Mar 18:21:55 18:26:09 18° 51° (NE) 18:30:39 435.675
STRAND 1 01 Mar 18:23:17 18:26:45 19° 90° (E) 18:30:22 437.568
CUTE-I 01 Mar 18:29:37 18:34:46 45° 262° (W) 18:39:56 437.470
PRISM 01 Mar 18:30:11 18:33:59 31° 96° (E) 18:37:47 437.425
MOZHAYETS 4 01 Mar 18:31:08 18:34:52 24° 294° (WNW) 18:38:30
M-CUBED/EXP-1 PRIME 01 Mar 18:37:46 18:40:27 17° 300° (WNW) 18:43:08 437.505
AUBIESAT-1 01 Mar 18:40:48 18:43:34 17° 300° (WNW) 18:46:21 437.475
CUBESAT XI-V 01 Mar 18:48:32 18:53:09 50° 99° (E) 18:57:43 437.345
YUBILEINY 01 Mar 18:55:26 19:02:05 22° 302° (WNW) 19:08:26 435.215
BEESAT 3 01 Mar 18:58:01 19:01:54 40° 312° (NW) 19:05:51 437.485
CUTE 1.7 + AOD 2 01 Mar 19:02:23 19:03:47 12° 61° (ENE) 19:05:24 437.475
AIST 2 01 Mar 19:11:48 19:16:05 79° 306° (NW) 19:20:25 435.215
PHONESAT 2.4 01 Mar 19:19:00 19:21:48 21° 159° (SSE) 19:24:39 2401.200-2431.200
BEESAT 2 01 Mar 19:22:28 19:26:08 29° 316° (NW) 19:29:49 435.950
VERMONT LUNAR 01 Mar 19:23:51 19:26:57 30° 167° (SSE) 19:30:04 437.305
BRITE-PL 01 Mar 19:26:32 19:31:45 41° 70° (ENE) 19:36:49 437.365/2234.400
GOMX 1 01 Mar 19:38:15 19:43:03 35° 69° (ENE) 19:47:44 467.674
O/OREOS (USA 219) 01 Mar 19:39:02 19:43:41 90° 66° (ENE) 19:48:15 437.305
AAUSAT CUBESAT 2 01 Mar 19:49:04 19:52:10 21° 66° (ENE) 19:55:22 437.432
COMPASS 1 01 Mar 19:50:21 19:53:43 25° 67° (ENE) 19:57:09 437.405
AIST 1 01 Mar 19:50:24 19:53:45 21° 272° (W) 19:56:56
STRAND 1 01 Mar 20:01:20 20:06:26 60° 288° (WNW) 20:11:29 437.568
HO-68 01 Mar 20:05:44 20:12:51 75° 71° (ENE) 20:20:01 435.675
PRISM 01 Mar 20:05:51 20:09:23 26° 293° (WNW) 20:12:52 437.425
SEEDS 01 Mar 20:15:03 20:19:07 54° 73° (ENE) 20:23:13 437.485
CANX-2 01 Mar 20:16:11 20:20:23 72° 75° (ENE) 20:24:36 2200.000
FUNcube-1 01 Mar 20:16:16 20:17:38 12° 61° (ENE) 20:19:12 145.935
ZACube-1 01 Mar 20:16:52 20:18:25 12° 62° (ENE) 20:20:09 437.345
DOVE 4 01 Mar 20:18:42 20:23:45 57° 73° (ENE) 20:28:34 437.250
UKube-1 01 Mar 20:26:18 20:28:40 15° 62° (ENE) 20:31:13 .
CUBESAT XI-V 01 Mar 20:26:45 20:30:16 21° 296° (WNW) 20:33:40 437.345
UWE-3 01 Mar 20:31:27 20:34:38 20° 66° (ENE) 20:37:52 435.000/436.395/437.385
CUTE 1.7 + AOD 2 01 Mar 20:34:58 20:39:11 78° 257° (WSW) 20:43:26 437.475
CINEMA 3 01 Mar 20:36:13 20:40:48 46° 72° (ENE) 20:45:12 145.822/145.860
PCSat 01 Mar 20:42:42 20:47:27 33° 112° (ESE) 20:52:19 145.827
AIST 2 01 Mar 20:52:52 20:55:26 15° 327° (NNW) 20:57:56 435.215
PHONESAT 2.4 01 Mar 20:56:24 20:59:49 39° 175° (S) 21:03:15 2401.200-2431.200
VERMONT LUNAR 01 Mar 21:01:14 21:04:31 38° 183° (S) 21:07:47 437.305
DELFI C3 01 Mar 21:03:05 21:06:58 49° 73° (ENE) 21:10:55 145.870
CUBEBUG 2 01 Mar 21:05:05 21:09:27 51° 73° (ENE) 21:13:43 437.445
BRITE-PL 01 Mar 21:05:17 21:10:20 32° 266° (W) 21:15:10 437.365/2234.400
Oscar 11 01 Mar 21:06:51 21:11:08 71° 75° (ENE) 21:15:26 145.826/435.025
GONETS M04 01 Mar 21:09:25 21:16:17 28° 83° (E) 21:23:25
GOMX 1 01 Mar 21:16:17 21:21:11 34° 265° (W) 21:25:51 467.674
AAUSAT CUBESAT 2 01 Mar 21:23:47 21:27:38 36° 263° (W) 21:31:29 437.432
COMPASS 1 01 Mar 21:25:37 21:29:20 31° 265° (W) 21:33:03 437.405
AISAT 01 Mar 21:27:31 21:31:16 27° 67° (ENE) 21:35:05 437.250
DX 1 01 Mar 21:28:57 21:33:18 63° 73° (ENE) 21:37:41 434.975-435.025
CUBEBUG 1 01 Mar 21:36:32 21:39:03 15° 62° (ENE) 21:41:43 437.445
VELOX 1 01 Mar 21:37:21 21:41:19 32° 68° (ENE) 21:45:21 145.980
FUNcube-1 01 Mar 21:49:04 21:53:28 83° 255° (WSW) 21:57:47 145.935
ESTCUBE 1 01 Mar 21:49:08 21:52:34 22° 65° (ENE) 21:56:06 437.505/2401.250
ZACube-1 01 Mar 21:49:53 21:54:17 80° 257° (WSW) 21:58:36 437.345
SEEDS 01 Mar 21:52:57 21:55:21 14° 271° (W) 21:57:36 437.485
CANX-2 01 Mar 21:55:41 21:56:56 11° 274° (W) 21:57:56 2200.000
HO-68 01 Mar 21:55:53 22:01:23 22° 271° (W) 22:06:38 435.675
DOVE 4 01 Mar 21:58:08 22:01:51 19° 270° (W) 22:05:19 437.250
UKube-1 01 Mar 22:00:04 22:04:23 64° 258° (WSW) 22:08:44 .
UNISAT 6 01 Mar 22:01:08 22:03:10 13° 88° (E) 22:05:26 437.425
HUMSAT D 01 Mar 22:02:21 22:06:33 75° 76° (ENE) 22:10:43 437.325/437.525
UWE-3 01 Mar 22:06:41 22:10:57 44° 262° (W) 22:15:08 435.000/436.395/437.385
50 SAT 01 Mar 22:11:30 22:15:28 67° 75° (ENE) 22:19:26 437.505
CINEMA 3 01 Mar 22:14:35 22:18:15 21° 268° (W) 22:21:40 145.822/145.860
TISAT 1 01 Mar 22:23:00 22:23:54 11° 60° (ENE) 22:25:02 437.305
PCSat 01 Mar 22:25:39 22:30:48 42° 310° (NW) 22:35:58 145.827
TIGRISAT 01 Mar 22:25:43 22:29:09 24° 93° (E) 22:32:40 435.000
QB50P1 01 Mar 22:34:08 22:36:49 17° 90° (E) 22:39:39 145.935-145.965
PHONESAT 2.4 01 Mar 22:34:38 22:37:56 32° 192° (SSW) 22:41:12 2401.200-2431.200
QB50P2 01 Mar 22:37:23 22:40:19 18° 91° (E) 22:43:21 145.880/145.840
ANTELSAT 01 Mar 22:38:23 22:42:15 33° 96° (E) 22:46:11 437.575/2403.000
VERMONT LUNAR 01 Mar 22:39:15 22:42:00 22° 200° (SSW) 22:44:43 437.305
DELFI C3 01 Mar 22:40:10 22:42:33 15° 271° (W) 22:44:45 145.870
CUBEBUG 2 01 Mar 22:43:25 22:46:28 17° 270° (W) 22:49:20 437.445
Oscar 11 01 Mar 22:46:16 22:47:54 12° 273° (W) 22:49:18 145.826/435.025
BUGSAT 1 01 Mar 22:50:20 22:53:12 18° 91° (E) 22:56:09 437.445
DUCHIFAT 1 01 Mar 22:53:04 22:56:35 26° 94° (E) 23:00:08 145.980
AISAT 01 Mar 23:03:41 23:07:48 33° 264° (W) 23:11:53 437.250
GONETS M04 01 Mar 23:03:52 23:12:31 67° 283° (WNW) 23:21:12
DX 1 01 Mar 23:07:43 23:10:03 14° 271° (W) 23:12:11 434.975-435.025
CUBEBUG 1 01 Mar 23:10:33 23:14:58 65° 258° (WSW) 23:19:25 437.445
POLYITAN 1 01 Mar 23:11:38 23:15:40 42° 98° (E) 23:19:40 437.675
POPSAT HIP 1 01 Mar 23:12:43 23:16:45 42° 98° (E) 23:20:46 437.405
VELOX 1 01 Mar 23:14:04 23:17:56 27° 266° (W) 23:21:46 145.980
RS-15 01 Mar 23:20:58 23:31:09 50° 113° (ESE) 23:41:36 29.354- 29.394
ESTCUBE 1 01 Mar 23:24:53 23:29:12 43° 262° (W) 23:33:33 437.505/2401.250
DANDE 01 Mar 23:29:33 23:34:25 22° 93° (E) 23:38:38 436.750
UNISAT 6 01 Mar 23:36:13 23:40:27 60° 287° (WNW) 23:44:42 437.425
NANOSAT C BR1 01 Mar 23:36:14 23:40:29 77° 102° (ESE) 23:44:41 145.865
ITUPSAT 1 01 Mar 23:40:11 23:42:21 13° 59° (ENE) 23:44:44 437.325
HUMSAT D 01 Mar 23:42:09 23:42:56 10° 274° (W) 23:43:28 437.325/437.525
SPROUT 01 Mar 23:47:02 23:51:23 81° 76° (ENE) 23:55:45 437.525
50 SAT 01 Mar 23:50:00 23:51:01 11° 273° (W) 23:51:47 437.505
TISAT 1 01 Mar 23:54:49 23:59:07 90° 246° (WSW) 00:03:26 437.305
TIGRISAT 02 Mar 00:02:09 00:06:01 33° 291° (WNW) 00:09:52 435.000
CUSAT 1 02 Mar 00:04:30 00:10:35 49° 98° (E) 00:15:15 437.405
QB50P1 02 Mar 00:08:57 00:13:02 47° 288° (WNW) 00:17:04 145.935-145.965
QB50P2 02 Mar 00:12:27 00:16:29 42° 289° (WNW) 00:20:28 145.880/145.840
PCSat 02 Mar 00:13:49 00:15:48 12° 334° (NNW) 00:17:39 145.827
PHONESAT 2.4 02 Mar 00:13:59 00:15:47 13° 208° (SSW) 00:17:31 2401.200-2431.200
ANTELSAT 02 Mar 00:15:25 00:18:58 25° 293° (WNW) 00:22:27 437.575/2403.000
BUGSAT 1 02 Mar 00:24:58 00:28:57 41° 289° (WNW) 00:32:49 437.445
DUCHIFAT 1 02 Mar 00:28:44 00:32:28 30° 292° (WNW) 00:36:08 145.980
SWISSCUBE 02 Mar 00:39:31 00:44:06 49° 71° (ENE) 00:48:44 437.505
POLYITAN 1 02 Mar 00:48:13 00:51:21 20° 295° (WNW) 00:54:22 437.675
BEESAT 02 Mar 00:48:17 00:52:55 54° 71° (ENE) 00:57:37 436.000
POPSAT HIP 1 02 Mar 00:49:17 00:52:25 20° 295° (WNW) 00:55:24 437.405
GONETS M04 02 Mar 01:06:33 01:11:32 15° 308° (NW) 01:16:04
YUBILEINY 02 Mar 01:09:40 01:11:39 11° 46° (NE) 01:14:15 435.215
DANDE 02 Mar 01:10:57 01:17:43 59° 282° (WNW) 01:22:47 436.750
NANOSAT C BR1 02 Mar 01:14:07 01:15:49 12° 299° (WNW) 01:17:19 145.865
ITUPSAT 1 02 Mar 01:14:50 01:19:38 86° 256° (WSW) 01:24:29 437.325
KKS-1 02 Mar 01:17:00 01:20:26 22° 65° (ENE) 01:23:56 437.445
STARS 02 Mar 01:26:09 01:29:09 19° 64° (ENE) 01:32:16 437.465
SPROUT 02 Mar 01:27:30 01:28:09 10° 274° (W) 01:28:31 437.525
RS-15 02 Mar 01:32:47 01:43:29 57° 318° (NW) 01:54:26 29.354- 29.394
SO-50 02 Mar 01:33:22 01:37:00 24° 114° (ESE) 01:40:51 436.795
ITAMSAT 1 02 Mar 01:36:50 01:39:36 15° 87° (E) 01:42:36 435.822/435.867
BEESAT 3 02 Mar 01:37:27 01:41:11 31° 44° (NE) 01:44:53 437.485
Oscar 19 02 Mar 01:39:13 01:44:06 44° 98° (E) 01:49:00 437.125/150
CUSAT 1 02 Mar 01:48:44 01:53:31 23° 288° (WNW) 01:57:18 437.405
AIST 2 02 Mar 01:54:05 01:57:16 20° 38° (NE) 02:00:29 435.215
BEESAT 2 02 Mar 02:01:45 02:05:45 43° 48° (NE) 02:09:43 435.950
SWISSCUBE 02 Mar 02:18:40 02:22:16 20° 269° (W) 02:25:47 437.505
BEESAT 02 Mar 02:27:50 02:31:10 18° 270° (W) 02:34:22 436.000
Gurwin Techsat 1B 02 Mar 02:41:24 02:46:28 43° 98° (E) 02:51:32 435.225
KKS-1 02 Mar 02:52:36 02:56:52 41° 262° (W) 03:01:07 437.445
STARS 02 Mar 03:00:58 03:05:18 51° 261° (W) 03:09:38 437.465
YUBILEINY 02 Mar 03:02:51 03:11:23 50° 73° (ENE) 03:19:56 435.215
HORYU 2 02 Mar 03:08:48 03:12:03 20° 92° (E) 03:15:26 437.375
SO-50 02 Mar 03:12:48 03:17:18 48° 312° (NW) 03:21:59 436.795
ITAMSAT 1 02 Mar 03:14:33 03:19:48 76° 286° (WNW) 03:25:00 435.822/435.867
BEESAT 3 02 Mar 03:15:33 03:19:16 32° 243° (WSW) 03:22:54 437.485
Oscar 19 02 Mar 03:19:02 03:23:16 26° 296° (WNW) 03:27:26 437.125/150
JAS-2 02 Mar 03:27:06 03:31:52 19° 85° (E) 03:37:09 435.910
AIST 2 02 Mar 03:32:03 03:36:19 65° 238° (WSW) 03:40:29 435.215
AO-7 02 Mar 03:32:31 03:39:02 26° 91° (E) 03:45:48 29.400- 29.500
BEESAT 2 02 Mar 03:40:27 03:43:43 22° 246° (WSW) 03:46:50 435.950
PCSat 02 Mar 03:46:16 03:48:14 12° 26° (NNE) 03:50:21 145.827
RS-15 02 Mar 03:49:44 03:58:58 29° 349° (N) 04:08:23 29.354- 29.394
M-CUBED/EXP-1 PRIME 02 Mar 03:53:35 03:56:52 70° 252° (WSW) 04:00:19 437.505
AUBIESAT-1 02 Mar 03:56:16 03:59:35 74° 253° (WSW) 04:03:02 437.475
MOZHAYETS 4 02 Mar 03:57:19 04:01:41 48° 71° (ENE) 04:06:07
Gurwin Techsat 1B 02 Mar 04:21:46 04:26:17 28° 295° (WNW) 04:30:42 435.225
HORYU 2 02 Mar 04:44:44 04:48:58 43° 290° (WNW) 04:53:09 437.375
ITAMSAT 1 02 Mar 04:56:23 04:58:31 12° 304° (NW) 05:00:24 435.822/435.867
SO-50 02 Mar 04:56:48 04:59:05 13° 335° (NNW) 05:01:17 436.795
YUBILEINY 02 Mar 05:00:02 05:08:05 40° 273° (W) 05:15:59 435.215
JAS-2 02 Mar 05:10:28 05:17:52 86° 104° (ESE) 05:25:44 435.910
PRISM 02 Mar 05:22:40 05:26:18 31° 68° (ENE) 05:30:02 437.425
AO-7 02 Mar 05:24:25 05:32:43 75° 292° (WNW) 05:40:56 29.400- 29.500
PCSat 02 Mar 05:28:01 05:33:12 43° 50° (NE) 05:38:23 145.827
MOZHAYETS 4 02 Mar 05:35:56 05:39:14 19° 270° (W) 05:42:26
STRAND 1 02 Mar 05:40:46 05:45:18 33° 66° (ENE) 05:49:56 437.568
CUBESAT XI-V 02 Mar 05:53:43 05:58:20 61° 73° (ENE) 06:03:01 437.345
RS-15 02 Mar 06:05:48 06:15:39 34° 23° (NNE) 06:25:59 29.354- 29.394
Cubesat XI-IV 02 Mar 06:35:14 06:40:30 52° 100° (E) 06:45:44 437.490
CUTE-I 02 Mar 06:44:24 06:49:45 62° 101° (E) 06:55:03 437.470
AIST 1 02 Mar 06:44:35 06:47:47 21° 88° (E) 06:51:08
JAS-2 02 Mar 06:56:40 07:02:15 24° 301° (WNW) 07:07:54 435.910
PRISM 02 Mar 06:58:23 07:01:52 25° 266° (W) 07:05:18 437.425
PCSat 02 Mar 07:11:43 07:16:31 32° 249° (WSW) 07:21:14 145.827
GONETS M04 02 Mar 07:16:27 07:21:14 16° 53° (NE) 07:26:29
AO-7 02 Mar 07:18:37 07:24:19 20° 313° (NW) 07:29:45 29.400- 29.500
STRAND 1 02 Mar 07:19:48 07:24:30 34° 264° (W) 07:29:10 437.568
CUBESAT XI-V 02 Mar 07:33:21 07:36:17 16° 272° (W) 07:39:03 437.345
HO-68 02 Mar 07:34:56 07:36:32 11° 82° (E) 07:38:43 435.675
CANX-2 02 Mar 08:02:06 08:03:07 11° 86° (E) 08:04:24 2200.000
Cubesat XI-IV 02 Mar 08:15:59 08:20:18 24° 297° (WNW) 08:24:30 437.490
RS-15 02 Mar 08:18:47 08:30:13 78° 52° (NE) 08:42:11 29.354- 29.394
DOVE 4 02 Mar 08:18:57 08:19:51 11° 85° (E) 08:21:00 437.250
CUTE 1.7 + AOD 2 02 Mar 08:19:31 08:22:03 16° 89° (E) 08:24:46 437.475
AIST 1 02 Mar 08:21:11 08:25:15 37° 286° (WNW) 08:29:21
SO-50 02 Mar 08:22:48 08:24:45 12° 24° (NNE) 08:26:50 436.795
CUTE-I 02 Mar 08:25:25 08:29:25 21° 299° (WNW) 08:33:16 437.470
Oscar 11 02 Mar 08:54:37 08:55:48 11° 86° (E) 08:57:14 145.826/435.025
UNISAT 6 02 Mar 09:02:18 09:05:04 17° 64° (ENE) 09:07:56 437.425
AAUSAT CUBESAT 2 02 Mar 09:04:59 09:08:38 29° 95° (E) 09:12:20 437.432
COMPASS 1 02 Mar 09:06:56 09:10:47 34° 96° (E) 09:14:39 437.405
BRITE-PL 02 Mar 09:08:14 09:12:55 83° 102° (ESE) 09:17:14 437.365/2234.400
GONETS M04 02 Mar 09:11:26 09:20:11 69° 78° (ENE) 09:28:57
GOMX 1 02 Mar 09:16:16 09:20:42 67° 101° (E) 09:24:54 467.674
HO-68 02 Mar 09:18:43 09:25:52 65° 102° (ESE) 09:33:02 435.675
TIGRISAT 02 Mar 09:26:36 09:30:20 28° 68° (ENE) 09:34:03 435.000
ISS 02 Mar 09:28:42 09:31:37 33° 141° (SE) 09:34:35 145.825
QB50P1 02 Mar 09:29:14 09:32:06 18° 64° (ENE) 09:35:05 145.935-145.965
QB50P2 02 Mar 09:32:38 09:35:42 20° 65° (ENE) 09:38:51 145.880/145.840
SEEDS 02 Mar 09:33:08 09:37:23 82° 103° (ESE) 09:41:38 437.485
CANX-2 02 Mar 09:35:24 09:39:40 73° 286° (WNW) 09:43:55 2200.000
FUNcube-1 02 Mar 09:36:56 09:39:20 15° 90° (E) 09:41:54 145.935
ZACube-1 02 Mar 09:37:52 09:40:23 16° 90° (E) 09:43:03 437.345
ANTELSAT 02 Mar 09:39:28 09:43:31 38° 71° (ENE) 09:47:34 437.575/2403.000
BUGSAT 1 02 Mar 09:42:39 09:45:37 19° 65° (ENE) 09:48:41 437.445
UKube-1 02 Mar 09:46:43 09:49:42 18° 91° (E) 09:52:46 .
DUCHIFAT 1 02 Mar 09:47:41 09:51:14 26° 67° (ENE) 09:54:52 145.980
HUMSAT D 02 Mar 09:47:49 09:48:07 10° 86° (E) 09:48:41 437.325/437.525
O/OREOS (USA 219) 02 Mar 09:52:59 09:57:31 73° 112° (ESE) 10:02:07 437.305
DOVE 4 02 Mar 09:54:02 09:58:21 71° 285° (WNW) 10:02:29 437.250
CUTE 1.7 + AOD 2 02 Mar 09:54:13 09:58:21 50° 288° (WNW) 10:02:28 437.475
UWE-3 02 Mar 09:54:51 09:58:29 29° 95° (E) 10:02:09 435.000/436.395/437.385
SO-50 02 Mar 10:01:57 10:06:38 42° 46° (NE) 10:11:21 436.795
CINEMA 3 02 Mar 10:06:21 10:10:34 85° 103° (ESE) 10:14:43 145.822/145.860
POLYITAN 1 02 Mar 10:06:39 10:10:42 42° 71° (ENE) 10:14:46 437.675
POPSAT HIP 1 02 Mar 10:07:28 10:11:30 42° 71° (ENE) 10:15:35 437.405
DELFI C3 02 Mar 10:16:01 10:20:06 67° 102° (ESE) 10:24:10 145.870
Oscar 11 02 Mar 10:28:16 10:32:36 74° 285° (WNW) 10:36:55 145.826/435.025
NANOSAT C BR1 02 Mar 10:30:37 10:34:54 75° 74° (ENE) 10:39:11 145.865
CUBEBUG 2 02 Mar 10:30:49 10:35:00 87° 108° (ESE) 10:39:10 437.445
RS-15 02 Mar 10:31:58 10:41:52 34° 253° (WSW) 10:51:46 29.354- 29.394
UNISAT 6 02 Mar 10:37:13 10:41:32 53° 260° (W) 10:45:48 437.425
AAUSAT CUBESAT 2 02 Mar 10:40:41 10:44:15 27° 292° (WNW) 10:47:45 437.432
CUSAT 1 02 Mar 10:42:36 10:44:35 19° 71° (ENE) 10:46:33 437.405
COMPASS 1 02 Mar 10:42:59 10:46:20 23° 293° (WNW) 10:49:38 437.405
BRITE-PL 02 Mar 10:48:48 10:50:45 12° 302° (WNW) 10:52:28 437.365/2234.400
DX 1 02 Mar 10:51:30 10:55:55 90° 94° (E) 11:00:17 434.975-435.025
AISAT 02 Mar 10:52:21 10:56:32 39° 97° (E) 11:00:42 437.250
GOMX 1 02 Mar 10:55:59 10:58:19 14° 299° (WNW) 11:00:26 467.674
CUBEBUG 1 02 Mar 10:58:24 11:01:39 20° 91° (E) 11:05:01 437.445
VELOX 1 02 Mar 11:02:03 11:06:23 48° 99° (E) 11:10:41 145.980
TIGRISAT 02 Mar 11:03:09 11:07:04 30° 265° (W) 11:10:52 435.000
QB50P1 02 Mar 11:03:31 11:07:40 48° 261° (W) 11:11:51 145.935-145.965
ISS 02 Mar 11:04:53 11:08:00 44° 339° (NNW) 11:11:08 145.825
HO-68 02 Mar 11:07:09 11:13:11 29° 302° (WNW) 11:19:03 435.675
QB50P2 02 Mar 11:07:14 11:11:21 43° 262° (W) 11:15:28 145.880/145.840
GONETS M04 02 Mar 11:09:16 11:16:23 28° 278° (W) 11:23:15
SEEDS 02 Mar 11:11:14 11:12:39 11° 299° (WNW) 11:13:53 437.485
FUNcube-1 02 Mar 11:12:02 11:16:03 49° 288° (WNW) 11:20:04 145.935
ZACube-1 02 Mar 11:13:06 11:17:06 47° 288° (WNW) 11:21:05 437.345
ESTCUBE 1 02 Mar 11:15:39 11:19:48 34° 96° (E) 11:23:57 437.505/2401.250
BUGSAT 1 02 Mar 11:16:41 11:20:49 46° 261° (W) 11:24:58 437.445
ANTELSAT 02 Mar 11:17:03 11:20:30 22° 267° (W) 11:23:49 437.575/2403.000
HUMSAT D 02 Mar 11:20:24 11:24:31 74° 286° (WNW) 11:28:37 437.325/437.525
UKube-1 02 Mar 11:21:57 11:26:09 46° 289° (WNW) 11:30:17 .
Oscar 19 02 Mar 11:22:39 11:24:30 12° 57° (ENE) 11:26:33 437.125/150
50 SAT 02 Mar 11:23:00 11:26:58 85° 102° (ESE) 11:30:56 437.505
DUCHIFAT 1 02 Mar 11:23:10 11:27:01 31° 264° (W) 11:30:49 145.980
UWE-3 02 Mar 11:31:30 11:35:01 26° 292° (WNW) 11:38:26 435.000/436.395/437.385
SPROUT 02 Mar 11:33:50 11:35:33 12° 87° (E) 11:37:29 437.525
O/OREOS (USA 219) 02 Mar 11:34:36 11:37:32 16° 312° (NW) 11:40:23 437.305
TISAT 1 02 Mar 11:39:38 11:41:21 12° 88° (E) 11:43:18 437.305
SO-50 02 Mar 11:42:45 11:47:07 31° 244° (WSW) 11:51:24 436.795
POLYITAN 1 02 Mar 11:43:41 11:46:52 19° 269° (W) 11:49:55 437.675
POPSAT HIP 1 02 Mar 11:44:28 11:47:38 19° 269° (W) 11:50:42 437.405
CINEMA 3 02 Mar 11:46:19 11:47:11 10° 300° (WNW) 11:47:52 145.822/145.860
DANDE 02 Mar 11:52:17 11:54:55 42° 263° (W) 11:57:23 436.750
DELFI C3 02 Mar 11:52:55 11:54:50 13° 297° (WNW) 11:56:35 145.870
NANOSAT C BR1 02 Mar 12:10:06 12:11:23 11° 273° (W) 12:12:25 145.865
CUBEBUG 2 02 Mar 12:10:41 12:11:07 10° 300° (WNW) 12:11:21 437.445
Gurwin Techsat 1B 02 Mar 12:28:11 12:30:30 13° 57° (ENE) 12:33:03 435.225
AISAT 02 Mar 12:29:25 12:32:58 23° 295° (WNW) 12:36:24 437.250
DX 1 02 Mar 12:30:11 12:31:33 11° 301° (WNW) 12:32:42 434.975-435.025
CUBEBUG 1 02 Mar 12:34:04 12:38:16 41° 290° (WNW) 12:42:23 437.445
VELOX 1 02 Mar 12:39:25 12:42:40 19° 296° (WNW) 12:45:46 145.980
SWISSCUBE 02 Mar 12:40:45 12:41:35 11° 85° (E) 12:42:45 437.505
ISS 02 Mar 12:42:14 12:44:57 24° 359° (N) 12:47:42 145.825
AO-7 02 Mar 12:47:34 12:50:16 12° 38° (NE) 12:53:21 29.400- 29.500
BEESAT 02 Mar 12:48:42 12:50:24 12° 86° (E) 12:52:23 436.000
ESTCUBE 1 02 Mar 12:52:42 12:56:35 27° 293° (WNW) 13:00:24 437.505/2401.250
ITAMSAT 1 02 Mar 12:56:09 13:00:32 29° 65° (ENE) 13:05:02 435.822/435.867
Oscar 19 02 Mar 12:57:58 13:03:06 78° 73° (ENE) 13:08:15 437.125/150
SPROUT 02 Mar 13:07:55 13:12:12 66° 286° (WNW) 13:16:26 437.525
TISAT 1 02 Mar 13:13:29 13:17:42 64° 286° (WNW) 13:21:50 437.305
ITUPSAT 1 02 Mar 13:14:17 13:17:55 22° 92° (E) 13:21:39 437.325
Gurwin Techsat 1B 02 Mar 14:04:25 14:09:44 81° 75° (ENE) 14:15:06 435.225
HORYU 2 02 Mar 14:09:14 14:12:48 25° 66° (ENE) 14:16:28 437.375
SWISSCUBE 02 Mar 14:15:25 14:20:17 89° 131° (SE) 14:25:05 437.505
ISS 02 Mar 14:18:53 14:21:57 38° 19° (NNE) 14:25:01 145.825
BEESAT 02 Mar 14:24:08 14:28:59 82° 285° (WNW) 14:33:47 436.000
AO-7 02 Mar 14:33:23 14:41:05 45° 61° (ENE) 14:48:52 29.400- 29.500
ITAMSAT 1 02 Mar 14:34:59 14:39:55 41° 262° (W) 14:44:51 435.822/435.867
Oscar 19 02 Mar 14:40:24 14:43:10 14° 273° (W) 14:45:40 437.125/150
KKS-1 02 Mar 14:41:50 14:45:48 32° 96° (E) 14:49:47 437.445
STARS 02 Mar 14:49:17 14:52:53 25° 94° (E) 14:56:32 437.465
ITUPSAT 1 02 Mar 14:51:27 14:56:06 47° 290° (WNW) 15:00:41 437.325
JAS-2 02 Mar 15:25:37 15:30:50 44° 67° (ENE) 15:36:42 435.910
HORYU 2 02 Mar 15:45:15 15:49:21 35° 263° (W) 15:53:25 437.375
Gurwin Techsat 1B 02 Mar 15:47:38 15:50:29 14° 274° (W) 15:53:04 435.225
SWISSCUBE 02 Mar 15:55:16 15:57:30 13° 301° (WNW) 15:59:32 437.505
ISS 02 Mar 15:55:19 15:58:25 42° 217° (SW) 16:01:30 145.825
BEESAT 02 Mar 16:04:24 16:06:08 12° 302° (WNW) 16:07:38 436.000
